Whyalla, South Australia

3:24 PM ACST on October 01, 2016 (GMT +0930)
Whyalla

Weather History for 94664 - May, 2014

Change the Weather History Date:

Thursday, May 22, 2014

  Actual Average Record
Temperature  
Mean Temperature 66 °F -  
Max Temperature 77 °F - - ()
Min Temperature 55 °F - - ()
Cooling Degree Days 1    
Growing Degree Days 16 (Base 50)    
Moisture  
Dew Point 52 °F    
Average Humidity 64    
Maximum Humidity 82    
Minimum Humidity 41    
Precipitation  
Precipitation 0.00 in - - ()
Sea Level Pressure  
Sea Level Pressure 29.99 in    
Wind  
Wind Speed 7 mph ()    
Max Wind Speed 15 mph    
Max Gust Speed -    
Visibility 6.2 miles    
Events      
T = Trace of Precipitation, MM = Missing Value Source: Averaged Metar Reports

Daily Weather History Graph

Daily Weather History Graph

Search for Another Location

Airport or City:

Trip Planner

Search our weather history database for the weather conditions in past years. The results will help you decide how hot, cold, wet, or windy it might be!

Date:

Astronomy

May. 22, 2014 Rise Set
Actual Time 7:07 AM ACST 5:25 PM ACST
Civil Twilight 6:41 AM ACST 5:51 PM ACST
Nautical Twilight 6:11 AM ACST 6:21 PM ACST
Astronomical Twilight 5:41 AM ACST 6:51 PM ACST
Moon No Moon Rise 1:08 PM ACST (5/22)
Length of Visible Light 11h 10m
Length of Day
10h 17m
Last Quarter, 44% of the Moon is Illuminated
May 22
Last Quarter
May 29
New
Jun 6
First Quarter
Jun 13
Full
Jun 20
Last Quarter

Hourly Weather History & Observations

Time (ACST) Temp. Dew Point Humidity Pressure Visibility Wind Dir Wind Speed Gust Speed Precip Events Conditions
12:30 AM 55.4 °F 50.0 °F 82% 30.04 in 6.2 mi NW 4.6 mph - N/A   Unknown
1:30 AM 57.2 °F 50.0 °F 77% 30.01 in 6.2 mi NNW 6.9 mph - N/A   Unknown
2:30 AM 62.6 °F 50.0 °F 63% 30.01 in 6.2 mi North 12.7 mph - N/A   Unknown
3:30 AM 57.2 °F 50.0 °F 77% 30.01 in 6.2 mi WNW 9.2 mph - N/A   Unknown
4:30 AM 55.4 °F 50.0 °F 82% 30.01 in 6.2 mi NNW 5.8 mph - N/A   Unknown
5:30 AM 57.2 °F 50.0 °F 77% 30.01 in 6.2 mi WNW 6.9 mph - N/A   Unknown
6:30 AM 55.4 °F 50.0 °F 82% 30.01 in 6.2 mi WNW 5.8 mph - N/A   Unknown
7:30 AM 57.2 °F 50.0 °F 77% 30.04 in 6.2 mi NNW 6.9 mph - N/A   Unknown
8:30 AM 60.8 °F 50.0 °F 68% 30.04 in 6.2 mi NW 9.2 mph - N/A   Unknown
9:30 AM 66.2 °F 51.8 °F 60% 30.04 in 6.2 mi WNW 11.5 mph - N/A   Unknown
10:30 AM 69.8 °F 50.0 °F 49% 30.04 in 6.2 mi North 15.0 mph - N/A   Unknown
11:30 AM 71.6 °F 51.8 °F 50% 30.01 in 6.2 mi North 13.8 mph - N/A   Unknown
12:30 PM 77.0 °F 51.8 °F 41% 29.98 in 6.2 mi North 13.8 mph - N/A   Unknown
1:30 PM 75.2 °F 51.8 °F 44% 29.95 in 6.2 mi North 12.7 mph - N/A   Unknown
2:30 PM 75.2 °F 51.8 °F 44% 29.95 in 6.2 mi North 13.8 mph - N/A   Unknown
3:30 PM 77.0 °F 53.6 °F 44% 29.92 in 6.2 mi North 10.4 mph - N/A   Unknown
4:30 PM 75.2 °F 53.6 °F 47% 29.95 in 6.2 mi North 9.2 mph - N/A   Unknown
5:30 PM 68.0 °F 53.6 °F 60% 29.95 in 6.2 mi North 6.9 mph - N/A   Unknown
6:30 PM 66.2 °F 53.6 °F 64% 29.95 in 6.2 mi NW 6.9 mph - N/A   Unknown
7:30 PM 64.4 °F 53.6 °F 68% 29.98 in 6.2 mi WNW 6.9 mph - N/A   Overcast
8:30 PM 64.4 °F 53.6 °F 68% 29.98 in 6.2 mi West 6.9 mph - N/A   Overcast
9:30 PM 64.4 °F 55.4 °F 73% 29.98 in 6.2 mi West 4.6 mph - N/A   Overcast
10:30 PM 64.4 °F 55.4 °F 73% 29.98 in 6.2 mi NNE 3.5 mph - N/A   Overcast
11:30 PM 64.4 °F 55.4 °F 73% 29.98 in 6.2 mi Calm Calm - N/A   Mostly Cloudy